{"data":{"norad_id":63187,"intl_designator":"2025-048E","name":"STARLINK-11622 [DTC]","alt_names":[],"object_type":"PAYLOAD","status":"ACTIVE","operator":null,"country":"US","launch_date":"2025-03-13","launch_site_code":"AFETR","launch_vehicle":null,"mission":null,"orbit_class":"UNKNOWN","rcs_meters":null,"size_class":null,"mass_kg":null,"dimensions":null,"purposes":["comms"],"wikipedia_slug":null,"has_3d_model":false,"image_url":null,"decayed_at":null,"tle_current":{"epoch":"2026-05-25T05:21:52.647264Z","epoch_age_seconds":52790,"freshness":"FRESH","line1":"1 63187U 25048E   26145.22352601  .00226712  00000+0  17177-2 0  9997","line2":"2 63187  42.9995 218.9603 0001927 274.6643  85.4004 15.70906836 70558","mean_motion":15.70906836,"eccentricity":0.0001927,"inclination_deg":42.9995,"raan_deg":218.9603,"arg_perigee_deg":274.6643,"mean_anomaly_deg":85.4004,"bstar":0.0017177,"rev_number":7055,"period_min":91.666798246717,"perigee_km":355.00631175688,"apogee_km":357.60176533313,"semimajor_km":6734.441038545,"source":"CELESTRAK","updated_at":"2026-05-25T13:38:19.919521Z"}}}